COSMOS 2195

Satellite information

Favourite Embed

Satellite Type and Status

PAYLOADIN ORBIT

Key statistics

Satellite COSMOS 2195 at a glance.

Uptime

12219

Days in orbit

Revolutions

≈ 13.8

Per day

Orbit

LEO

Low Earth Orbit

Inclination

82.9

Latest

Satellite identification and parameters

Extended collection of information and parameters for COSMOS 2195.

Object identification

Identified? True

Debris? False

Object name: COSMOS 2195

International designator: 1992-036A

Object number (NORAD): 22006

Object ID (CCSDS): 22006

Country: COMMONWEALTH OF INDEPENDENT STATES (CIS)

Current information (Y/N): Y

RCS size: LARGE

Orbital parameters

Period: 104.714 minutes

Inclination: 82.934 deg

SMA: 7359.198 km

Apoapsis: 1009.156 km

Periapsis: 952.969 km

RAAN: 195.7413 deg

Eccentricy: 0.00381743

Argument of periapsis: 72.347 deg

Mean anomaly: 359.728 deg

Mean motion: 13.75172119 rev/day

Mean motion (dot): 0.00000064 rev/day2

B* drag term: 0.000050068907 1/REarth

Two-line elements (TLE)

Creation date: Dec. 14, 2025, 3:07 a.m.

Reference frame: TEME

Reference center: EARTH

Epoch: Dec. 13, 2025, 5:07 p.m. UTC

TLE line 0: 0 COSMOS 2195

TLE line 1: 1 22006U 92036A 25347.71379622 .00000064 00000-0 50069-4 0 9992

TLE line 2: 2 22006 82.9340 195.7413 0038174 72.3470 359.7280 13.75172119678646

Live tracking on map

Real-time ground track for satellite COSMOS 2195.

In-orbit conjunctions

A list of the most updated potential collisions computed for object COSMOS 2195.

Target Orbit TCA Probability of collision Miss distance Type
COSMOS 1275 DEB LEO 2025-12-03 10:00:11 0.01140497 36.0 (m) DEBRIS
EXPLORER 11 LEO 2025-06-14 17:34:35 0.001320837 911.0 (m) PAYLOAD
THORAD AGENA D DEB SSO 2024-06-06 04:23:25 0.0009336818 281.0 (m) DEBRIS

Associated space launch

Navigation satellite providing location information for the Tsiklon-B navigation system

COSMOS 2195 was lifted into orbit during the mission ‘Kosmos-3M | Parus 77’, on board a Kosmos-3M space rocket.

The launch took place on July 1, 1992, 8:16 p.m. from 133/3 (133L).

For more information about the launch, click the button.

Launch to space Kosmos-3M | Parus 77
Kosmos-3M | Parus 77

Agency: N/A

Status: Launch Successful

Launch date: July 1, 1992, 8:16 p.m. UTC

Rocket: Kosmos-3M

Launch pad: 133/3 (133L)

Location: Plesetsk Cosmodrome, Russian Federation

...

Latest news about this satellite

There are no fresh news available about this satellite. Check back as we update our databases every day.


Newsletter sign-up

Weekly statistics, charts and insights to help you stay on top of the space industry.